www.pogodaiklimat.ru
ПОГОДА в Ангра-ду-Эроижму
Время
(UTC), дата
14 7.07
13 7.07
15 7.07
16 7.07
17 7.07
18 7.07
20 7.07
19 7.07
21 7.07
22 7.07
23 7.07
00 8.07
02 8.07
01 8.07
03 8.07
04 8.07
05 8.07
06 8.07
08 8.07
07 8.07
09 8.07
10 8.07
11 8.07
12 8.07
14 8.07
13 8.07
15 8.07
16 8.07
17 8.07
18 8.07
20 8.07
19 8.07
21 8.07
22 8.07
23 8.07
00 9.07
02 9.07
01 9.07
03 9.07
04 9.07
05 9.07
06 9.07
08 9.07
07 9.07
09 9.07
10 9.07
11 9.07
12 9.07
14 9.07
13 9.07
15 9.07
16 9.07
17 9.07
18 9.07
20 9.07
19 9.07
21 9.07
22 9.07
23 9.07
00 10.07
02 10.07
01 10.07
03 10.07
04 10.07
05 10.07
06 10.07
08 10.07
07 10.07
09 10.07
10 10.07
11 10.07
12 10.07
14 10.07
13 10.07
15 10.07
16 10.07
17 10.07
18 10.07
20 10.07
19 10.07
21 10.07
22 10.07
23 10.07
00 11.07
02 11.07
01 11.07
03 11.07
04 11.07
05 11.07
06 11.07
08 11.07
07 11.07
09 11.07
10 11.07
11 11.07
12 11.07
14 11.07
13 11.07
15 11.07
16 11.07
17 11.07
18 11.07
20 11.07
19 11.07
21 11.07
22 11.07
23 11.07
00 12.07
02 12.07
01 12.07
03 12.07
04 12.07
05 12.07
06 12.07
08 12.07
07 12.07
09 12.07
10 12.07
11 12.07
12 12.07
14 12.07
13 12.07
15 12.07
16 12.07
17 12.07
18 12.07
20 12.07
19 12.07
21 12.07
22 12.07
23 12.07
00 13.07
02 13.07
01 13.07
03 13.07
04 13.07
05 13.07
06 13.07
08 13.07
07 13.07
09 13.07
10 13.07
11 13.07
12 13.07
14 13.07
13 13.07
15 13.07
16 13.07
17 13.07
18 13.07
20 13.07
19 13.07
21 13.07
22 13.07
23 13.07
00 14.07
02 14.07
01 14.07
03 14.07
04 14.07
05 14.07
06 14.07
08 14.07
07 14.07
09 14.07
10 14.07
11 14.07
12 14.07
Ветер
(напр.,м/с)
Видим. Явления Облачность Т
(С)
Тd
(С)
f
(%)
Тe
(С)
Тes
(С)
Комфортность P
(гПа)
Po
(гПа)
Тmin
(С)
Tmax
(С)
R
(мм)
R24
(мм)
S
(см)
ЮВ 2 н/о н/о +20.7 +20.7 100 +26 +26 душно 1026.4 1015.7
С 1 н/о н/о +20.8 -26.0 3 +20 +20 1026.7 1016.0 0.2
нст 1 1800 м {дождь} 9/9 200 м
[Frnb Ac trans Cs]
+21.1 +18.2 84 +25 +27 комфорт 1026.1 1015.5
штиль 0 н/о н/о +20.9 +20.9 100 +26 +26 душно 1026.1 1015.4
н/о н/о +21.2 +21.2 100 1025.7 1015.1
штиль 0 н/о н/о +21.7 +21.7 100 +28 +28 душно 1025.5 1014.9 +22.2 0.8

{6}
н/о н/о +22.1 +20.0 88 1025.6 1015.0

{7}
н/о н/о +23.0 +19.3 80 1025.2 1014.7
С 2
{5}
н/о н/о +20.6 +20.6 100 +26 +26 душно 1026.0 1015.4 0.8
С 1 н/о н/о +19.9 +19.9 100 +24 +24 комфорт 1026.7 1016.0
СЗ 2 н/о н/о +19.2 +19.2 100 +22 +22 комфорт 1026.8 1016.1
СЗ 3
{5}
н/о н/о +19.4 +19 +19 1026.4 1015.7
штиль 0 н/о н/о +18.9 +18 +18 1026.1 1015.4

{5}
н/о н/о +18.8 -27.4 3 1026.4 1015.7
нст 1 н/о н/о +19.0 -27.3 3 +20 +20 1025.9 1015.3
С 2 н/о н/о +18.8 -27.4 3 +19 +19 1025.5 1014.8 0.1
СЗ 2 н/о н/о +18.6 +19 +19 1025.7 1015.0
нст 1 н/о н/о +18.4 -1.4 26 +19 +19 1026.0 1015.3 +18.4 0.1
СЗ 2 н/о н/о +18.8 +19 +19 1026.5 1015.8
штиль 0 н/о н/о +18.3 -27.7 3 +18 +18 1026.5 1015.8 0.1
штиль 0 2000 м {снег} 9/9 200 м
[Sc diur, vesp Ac trans Cs]
+20.6 +18.4 87 +24 +26 комфорт 1026.7 1016.1
С 2 н/о н/о +20.2 +20.2 100 +25 +25 комфорт 1026.8 1016.1

{5}
н/о н/о +20.3 +20.3 100 1027.0 1016.3
нст 2 2000 м слаб. морось 9/9 300 м
[Sc diur, vesp Ac lent Cs]
+22.0 +17.7 77 +27 +33 душно 1027.1 1016.4 0.1
В 3
{5}
н/о н/о +21.5 +21.1 98 +27 +27 душно 1026.9 1016.3
В 3 н/о н/о +21.7 +21.7 100 +28 +28 душно 1027.0 1016.4
СВ 4
{6}
2000 м {снег} 9/5 300 м
[Frnb Ac lent Cs]
+23.8 +20.0 79 +29 +34 душно 1026.6 1016.0
СВ 3
{7}
н/о н/о +21.3 +21.1 99 +27 +27 душно 1026.4 1015.8
СВ 3
{5}
н/о н/о +21.2 +21.2 100 +27 +27 душно 1026.4 1015.8
СВ 2
{5}
н/о н/о +20.9 +20.9 100 +27 +27 душно 1026.4 1015.8 +22.6 0.1
СВ 2
{5}
н/о н/о +20.5 +19.6 95 +25 +25 комфорт 1026.5 1015.9
н/о н/о +20.8 +20.8 100 1026.4 1015.8
С 2 н/о н/о +20.4 +18.8 91 +25 +25 комфорт 1026.7 1016.1
СВ 2 н/о н/о +20.1 +19.0 93 +24 +24 комфорт 1027.3 1016.7
н/о н/о +20.1 +20.0 99 1027.8 1017.1
С 3
{5}
н/о н/о +20.1 +18.7 92 +24 +24 комфорт 1027.6 1016.9
С 2 н/о н/о +19.7 +17.4 87 +23 +23 комфорт 1026.9 1016.2
С 2
{6}
н/о н/о +19.9 +17.1 84 +23 +23 комфорт 1027.2 1016.5
С 2 н/о н/о +19.7 +17.2 85 +23 +23 комфорт 1026.7 1016.1
С 3
{5}
н/о н/о +19.6 +17.2 86 +22 +22 комфорт 1026.6 1015.9
С 2 н/о н/о +19.5 +17.5 88 +22 +22 комфорт 1026.5 1015.8
штиль 0 н/о н/о +19.3 -47.1 90 +21 +21 комфорт 1026.8 1002.2 +19.3
СВ 2 н/о н/о +19.7 +17.3 86 +23 +23 комфорт 1027.3 1016.6
С 1 н/о н/о +19.5 +18.7 95 +23 +23 комфорт 1027.3 1016.6
В 2 2000 м слаб. морось 10/10 200 м
[Sc diur, vesp Ac trans Cs]
+19.9 +18.9 94 +24 +25 комфорт 1026.7 1016.9
н/о н/о +20.2 +18.9 92 1028.0 1017.3
С 2 н/о н/о +19.9 +19.3 96 +24 +24 комфорт 1028.2 1017.5
СВ 1 2000 м 9/9 300 м
[Sc diur, vesp Ac lent Cs]
+21.2 +16.3 74 +25 +32 комфорт 1028.4 1017.8
СВ 3 н/о н/о +21.7 +18.4 82 +26 +26 душно 1027.9 1017.3
В 2 н/о н/о +21.5 +17.8 79 +26 +26 душно 1028.1 1017.5
нст 1 2000 м 9/9 300 м
[Sc diur, vesp Ac lent Cs]
+22.0 +16.1 69 1028.0 1017.4
С 2 н/о н/о +22.5 +18.1 76 +28 +28 душно 1027.5 1016.9
С 2
{5}
н/о н/о +21.3 +17.9 81 +25 +25 комфорт 1027.5 1016.9
СВ 3
{6}
н/о н/о +20.7 +18.9 89 +25 +25 комфорт 1027.2 1016.6 +23.1
СВ 1
{5}
н/о н/о +20.4 +18.8 91 +25 +25 комфорт 1027.5 1016.9
СВ 3
{6}
н/о н/о +20.6 +19.1 91 +25 +25 комфорт 1027.4 1016.8
СВ 1 н/о н/о +20.2 +18.1 88 +25 +25 комфорт 1027.7 1017.1
СЗ 2 н/о н/о +18.9 +17.2 90 +21 +21 комфорт 1028.3 1017.6
СЗ 2 н/о н/о +19.5 +17.1 86 +22 +22 комфорт 1028.7 1018.0
СЗ 1 н/о н/о +19.8 +16.6 82 +23 +23 комфорт 1028.5 1017.9
С 3-6
{6}
н/о н/о +18.9 +18.9 100 +21 +21 комфорт 1027.3 1016.6

{5}
н/о н/о +19.4 +19.4 100 1027.9 1017.2
СЗ 2
{7}
н/о н/о +19.1 +19.1 100 +22 +22 комфорт 1026.7 1016.0
СЗ 3
{6}
н/о н/о +19.5 +18.8 96 +22 +22 комфорт 1026.3 1015.7
СЗ 2
{5}
н/о н/о +19.6 +18.6 94 +23 +23 комфорт 1026.3 1015.6
З 1 н/о н/о +19.6 -30.5 2 +20 +20 1026.2 1002.2 +18.4
СЗ 2 н/о н/о +19.9 +19.5 98 +24 +24 комфорт 1026.3 1015.6
СЗ 3
{5}
н/о н/о +19.3 +18.9 98 +22 +22 комфорт 1026.2 1015.5
СВ 2 2000 м 10/10 300 м
[Sc diur, vesp Ac lent Cs]
+20.7 +16.1 75 +25 +26 комфорт 1026.5 1015.9
СВ 2 н/о н/о +20.6 +19.6 94 +26 +26 душно 1026.9 1016.3
С 2 н/о н/о +20.8 +19.2 91 +26 +26 душно 1027.0 1016.4
СВ 2 2000 м 10/10 2000 м
[Sc diur, vesp Ac lent Cs]
+22.0 +15.9 68 +26 +31 душно 1027.0 1016.4
СВ 3
{5}
н/о н/о +21.9 +17.8 78 +27 +27 душно 1026.5 1015.9
В 3
{5}
н/о н/о +22.4 +18.2 77 +28 +28 душно 1026.8 1016.2
СВ 3-6
{6}
2500 м 9/9 600 м
[Sc diur, vesp Ac und Cs]
+23.0 +16.9 69 +28 +34 душно 1026.1 1015.5
СВ 3
{6}
н/о н/о +22.5 +18.7 79 +28 +28 душно 1025.8 1015.2
В 3
{6}
н/о н/о +22.1 +19.2 84 +28 +28 душно 1025.5 1015.0
СВ 3
{5}
н/о н/о +21.5 +19.1 86 +26 +26 душно 1025.3 1014.7 +23.3

{5}
н/о н/о +20.6 +20.6 100 1025.2 1014.6
СВ 3
{5}
н/о н/о +20.7 +19.6 93 +25 +25 комфорт 1025.3 1014.7
СВ 2 н/о н/о +20.0 +20.0 100 +24 +24 комфорт 1025.4 1014.7
СВ 2 н/о н/о +19.6 +19.6 100 +23 +23 комфорт 1025.6 1014.9
СВ 1 н/о н/о +19.4 +19.4 100 +23 +23 комфорт 1025.7 1015.0
штиль 0 н/о н/о +18.7 +18 +18 1025.5 1014.8
штиль 0 н/о н/о +18.7 -26.4 3 +18 +18 1024.9 1014.2
штиль 0 н/о н/о +18.8 +18 +18 1025.2 1014.5
штиль 0 н/о н/о +18.8 +18 +18 1024.7 1014.0
штиль 0 н/о н/о +18.9 -27.3 3 +18 +18 1024.0 1013.4
штиль 0 н/о н/о +18.9 +18 +18 1023.8 1013.2
штиль 0 н/о н/о +18.9 -70.5 +18 +18 1023.7 1013.1 +18.5
н/о н/о +19.5 1023.9 1013.3
штиль 0 н/о н/о +18.4 -27.7 3 +18 +18 1023.8 1013.1
нст 2 н/о н/о +21.1 +21.0 99 +26 +26 душно 1024.2 1013.6
В 3
{5}
н/о н/о +22.1 +21.0 93 +29 +29 очень
душно
1024.2 1013.6

{5}
н/о н/о +22.1 +19.8 87 1024.2 1013.7
В 5-8
{8}
н/о н/о +22.9 +21.6 92 +31 +31 очень
душно
1024.4 1013.9
В 4-5
{6}
н/о н/о +22.0 +20.4 91 +28 +28 душно 1024.3 1013.7
В 3-6
{7}
н/о н/о +22.8 +21.1 90 +30 +30 очень
душно
1024.5 1014.0
ЮВ 2
{6}
н/о н/о +22.5 +21.1 92 +30 +30 очень
душно
1023.9 1013.4
С 3-5
{5}
н/о н/о +23.6 +20.9 85 +30 +30 очень
душно
1023.5 1013.0
ЮВ 3
{5}
н/о н/о +22.7 +21.0 90 +30 +30 очень
душно
1023.4 1012.9
ЮВ 3-6
{6}
н/о н/о +22.9 +19.8 83 +30 +30 очень
душно
1023.2 1012.7 +23.8
В 3
{5}
н/о н/о +21.0 +19.5 91 +26 +26 душно 1023.2 1012.6
ЮВ 3-5
{6}
н/о н/о +22.0 +19.1 84 +27 +27 душно 1023.1 1012.5
В 3
{5}
н/о н/о +20.6 +20.4 99 +26 +26 душно 1023.4 1012.8
В 3
{5}
н/о н/о +20.5 +20.4 99 +25 +25 комфорт 1023.5 1012.9
В 3-6
{6}
н/о н/о +20.4 +20.2 99 +25 +25 комфорт 1023.7 1013.1
В 3-5
{7}
н/о н/о +20.3 +20.3 100 +25 +25 комфорт 1023.6 1013.0
В 3
{6}
н/о н/о +20.2 +20.2 100 +24 +24 комфорт 1023.5 1012.9
В 4-6
{6}
н/о н/о +20.2 +20.2 100 +24 +24 комфорт 1023.6 1013.0
В 2
{5}
н/о н/о +20.0 +20.0 100 +24 +24 комфорт 1023.2 1012.6
С 2
{5}
н/о н/о +19.8 +19.8 100 +24 +24 комфорт 1022.9 1012.3
н/о н/о +19.7 +19.7 100 1023.0 1012.4
СВ 1 н/о н/о +19.8 +19.8 100 +24 +24 комфорт 1023.4 1012.8 +19.7
СВ 2 н/о н/о +20.1 +20.1 100 +24 +24 комфорт 1024.0 1013.4
СВ 2 н/о н/о +19.7 +19.7 100 +23 +23 комфорт 1023.6 1012.9
СВ 2 н/о н/о +21.1 +18.7 86 +25 +25 комфорт 1024.4 1013.9
СВ 3
{5}
н/о н/о +21.4 +18.3 83 +26 +26 душно 1024.7 1014.1
В 4-6
{7}
н/о н/о +23.2 +17.6 71 +29 +29 душно 1024.6 1014.1
В 3-6
{8}
н/о н/о +23.1 +16.2 65 +28 +28 душно 1025.2 1014.6
В 3
{6}
н/о н/о +23.5 +17.9 71 +28 +28 душно 1025.0 1014.5
В 3
{5}
н/о н/о +23.5 +17.8 70 +28 +28 душно 1025.1 1014.6
СВ 5 н/о н/о +23.3 +18.3 73 +29 +29 душно 1024.9 1014.4
СВ 5 н/о н/о +22.9 +19.2 80 +29 +29 очень
душно
1025.0 1014.5
В 4
{7}
н/о н/о +23.0 +19.3 80 +29 +29 очень
душно
1025.4 1014.8
В 3-6
{6}
н/о н/о +22.8 +19.0 79 +29 +29 очень
душно
1025.3 1014.7 +24.4
В 3
{5}
н/о н/о +20.9 +19.7 93 +26 +26 душно 1025.6 1015.0
В 4
{6}
н/о н/о +22.2 +18.7 81 +28 +28 душно 1025.3 1014.7
В 2 н/о н/о +20.2 +20.2 100 +25 +25 комфорт 1026.2 1015.6
СВ 2 н/о н/о +20.1 +20.1 100 +24 +24 комфорт 1026.6 1016.0
СВ 1 н/о н/о +19.9 +19.7 99 +24 +24 комфорт 1027.1 1016.4
СЗ 2 н/о н/о +18.9 +18.9 100 +21 +21 комфорт 1027.2 1016.5
С 2 н/о н/о +18.9 +18.9 100 +21 +21 комфорт 1027.0 1016.3
С 1 н/о н/о +18.9 +18.9 100 +22 +22 комфорт 1027.2 1016.6
С 2 н/о н/о +18.8 +18.8 100 +21 +21 комфорт 1026.9 1016.3
СВ 3-5
{5}
н/о н/о +19.6 +19.6 100 +23 +23 комфорт 1026.6 1015.9
СВ 3
{6}
н/о н/о +20.0 +18.4 91 +23 +23 комфорт 1026.7 1016.1
нст 3-5
{5}
н/о н/о +19.9 +19.9 100 +24 +24 комфорт 1027.2 1016.5 +18.7
С 2 н/о н/о +20.3 +19.6 96 +25 +25 комфорт 1028.4 1017.7
СВ 2
{6}
н/о н/о +20.0 +18.4 91 +24 +24 комфорт 1027.8 1017.1
СВ 2
{5}
2000 м 10/10 300 м
[Sc diur, vesp Ac lent Cs]
+20.7 +16.3 76 +25 +26 комфорт 1029.1 1018.4
штиль 0 н/о н/о +21.2 +17.7 80 +25 +25 комфорт 1029.5 1018.9

{5}
н/о н/о +21.6 +17.8 79 1029.6 1019.0
СВ 3
{6}
2000 м 9/9 300 м
[Sc diur, vesp Ac und]
+21.8 +16.1 70 +26 +31 душно 1030.0 1019.4
СВ 4
{6}
н/о н/о +23.4 +17.0 67 +29 +29 душно 1029.6 1019.1
СВ 3 н/о н/о +22.7 +17.1 71 +28 +28 душно 1030.1 1019.5
СВ 4-7
{7}
2500 м 4/4 1000 м
[Cu med, cong]
+23.8 +16.9 65 +27 +35 жарко 1029.1 1018.6
СВ 5-8
{8}
н/о н/о +22.9 +19.2 80 +29 +29 очень
душно
1029.3 1018.7
СВ 5-8
{8}
н/о н/о +22.2 +18.2 78 +27 +27 душно 1029.1 1018.5
С 4-7
{8}
н/о н/о +22.6 +17.5 73 +28 +28 душно 1029.1 1018.5 +24.5
С 4-7
{7}
н/о н/о +21.7 +17.3 76 +26 +26 душно 1029.4 1018.8
СВ 4-7
{7}
н/о н/о +21.8 +18.2 80 +27 +27 душно 1029.2 1018.6
С 3-7
{7}
н/о н/о +20.9 +18.6 87 +26 +26 душно 1029.5 1018.9
С 4-7
{8}
н/о н/о +19.9 +19.9 100 +23 +23 комфорт 1029.8 1019.1
С 4-6
{7}
н/о н/о +20.2 +19.2 94 +24 +24 комфорт 1030.2 1019.5
С 3
{8}
н/о н/о +19.6 +19.6 100 +23 +23 комфорт 1030.3 1019.6
С 3-5
{6}
н/о н/о +19.1 +19.1 100 +21 +21 комфорт 1030.1 1019.4
С 3-5
{6}
н/о н/о +19.3 +19.3 100 +22 +22 комфорт 1030.3 1019.6
С 3-5
{7}
н/о н/о +18.6 +18.6 100 +20 +20 1029.8 1019.1
СЗ 4-6
{6}
н/о н/о +18.3 +18.3 100 +19 +19 1029.6 1018.8
СЗ 4
{6}
н/о н/о +18.2 +18.2 100 +18 +18 1029.3 1018.6
СЗ 4-6
{6}
н/о н/о +18.4 +18.4 100 +19 +19 1029.5 1018.8 +18.2
С 3-5
{6}
н/о н/о +19.9 +19.7 99 +24 +24 комфорт 1029.5 1018.8
С 4-6
{6}
н/о н/о +18.5 +18.5 100 +19 +19 1029.4 1018.7
С 4-8
{8}
2500 м 1/1 1000 м
[Cu hum As op]
+21.2 +16.5 75 +25 +27 комфорт 1029.6 1018.9
С 4-7
{8}
н/о н/о +22.7 +17.4 72 +28 +28 душно 1029.3 1018.7
С 5-8
{8}
н/о н/о +23.4 +17.0 67 +29 +29 душно 1029.2 1018.7
С 5-8
{9}
2500 м 1/0
[As op]
+24.2 +16.3 61 +28 +36 душно 1029.2 1018.7
Местоположение метеостанции Ангра-ду-Эроижму (Португалия): широта 38.67 долгота -27.21 высота над уровнем моря 76 м.
В архиве по умолчанию представлена погода в Ангра-ду-Эроижму за последнюю неделю. Архивные данные за месяц целиком и за предыдущие месяцы, начиная с января 2011 года, Вы можете получить, выбрав интересующий диапазон дат из раскрывающегося списка и нажав кнопку "Найти!".
*Определитесь, кто Вы:
Внимание! Время в таблицах - всемирное. Для получения местного времени необходимо прибавить поправку, которая равна 0 ч.
Смотрите также архив погоды в соседних городах и на ближайших метеорологических станциях:
Партнеры нашего сайта:      
Пояснения к столбцам:
  • Ветер - указаны скорость ветра в м/с - средняя за 10 мин, порывы в срок и между сроками (в фигурных скобках) и направление, откуда дует ветер: С - северный,
  • СВ - северо-восточный, В - восточный, ЮВ - юго-восточный, Ю - южный, ЮЗ - юго-западный, З - западный, СЗ - северо-западный.
  • Видимость - горизонтальная дальность видимости в метрах или километрах. При видимости от 1 до 10 км при отсутствии осадков обычно наблюдается дымка, при ухудшении видимости до 1 км и менее - туман. В сухую погоду видимость может ухудшаться дымом, пылью или мглою.
  • Явления - указаны атмосферные явления, наблюдавшиеся в срок или в последний час перед сроком; фигурными скобками обозначены явления, наблюдавшиеся между сроками (за 1-3 часа до срока); квадратными скобками обозначены град или гололедные отложения с указанием их диаметра в мм.
  • Облачность - указаны через наклонную черту общая и нижняя облачность в баллах и высота нижней границы облаков в метрах; квадратными скобками обозначены формы облаков: Ci - перистые, Cs - перисто-слоистые, Cc - перисто-кучевые, Ac - высококучевые, As - высокослоистые, Sc - слоисто-кучевые, Ns - слоисто-дождевые, Cu - кучевые, Cb - кучево-дождевые. Подробнее классификацию облаков см. в Атласе облаков (PDF).
  • T - Температура воздуха - температура, измеренная на высоте 2 м над землей.
  • Td - Температура точки росы - температура, при понижении до которой содержащийся в воздухе водяной пар достигнет насыщения.
  • f - Относительная влажность воздуха - влажноcть воздуха, измеренная на высоте 2 м над землей.
  • Te - Эффективная температура - температура, которую ощущает одетый по сезону человек в тени. Характеристика душности погоды. При расчете учитывается влияние влажности воздуха и скорости ветра на теплоощущения человека.
  • Tes - Эффективная температура на солнце - температура, которую ощущает человек, с поправкой на солнечный нагрев. Характеристика знойности погоды. Зависит от высоты солнца над горизонтом, облачности и скорости ветра. Ночью, в пасмурную погоду, а также при ветре 12 м/с и более поправка равна нулю.
  • P - Атмосферное давление - приведенное к уровню моря атмосферное давление.
  • Po - Атмосферное давление - измеренное на уровне метеостанции атмосферное давление.
  • Tmin - Минимальная температура - минимум температуры воздуха на высоте 2 м над землей.
  • Tmax - Максимальная температура - максимум температуры воздуха на высоте 2 м над землей.
  • R - Количество осадков - Количество выпавших осадков за период времени, мм. При наведении курсора мыши на число - период времени, за который выпало указанное количество осадков.
  • R24 - Количество осадков - Количество выпавших осадков за 24 часа, мм.
  • S - Снежный покров - Высота снежного покрова, см. При наведении курсора мыши на число - состояние снежного покрова и степень покрытия местности в баллах.